TimeEDT,TemperatureF,Dew PointF,Humidity,Sea Level PressureIn,VisibilityMPH,Wind Direction,Wind SpeedMPH,Gust SpeedMPH,PrecipitationIn,Events,Conditions,WindDirDegrees,DateUTC
12:54 AM,27.0,21.9,81,30.16,10.0,Calm,Calm,-,N/A,,Clear,0,2013-03-15 04:54:00
1:54 AM,27.0,21.0,78,30.14,10.0,Calm,Calm,-,N/A,,Clear,0,2013-03-15 05:54:00
2:54 AM,30.0,21.9,72,30.13,10.0,WSW,4.6,-,N/A,,Clear,240,2013-03-15 06:54:00
3:54 AM,30.9,21.0,67,30.11,10.0,SW,4.6,-,N/A,,Clear,220,2013-03-15 07:54:00
4:54 AM,30.9,21.0,67,30.09,10.0,SSW,4.6,-,N/A,,Overcast,210,2013-03-15 08:54:00
5:54 AM,30.9,21.9,69,30.08,10.0,SSW,4.6,-,N/A,,Overcast,200,2013-03-15 09:54:00
6:54 AM,30.0,21.9,72,30.06,10.0,SSW,4.6,-,N/A,,Clear,200,2013-03-15 10:54:00
7:54 AM,30.9,21.9,69,30.04,10.0,SSW,6.9,-,N/A,,Clear,200,2013-03-15 11:54:00
8:54 AM,32.0,25.0,75,30.04,10.0,SSW,6.9,-,N/A,,Clear,200,2013-03-15 12:54:00
9:54 AM,35.1,28.0,76,30.03,10.0,SSW,8.1,-,N/A,,Clear,210,2013-03-15 13:54:00
10:54 AM,39.9,30.0,68,30.01,10.0,WSW,11.5,-,N/A,,Clear,240,2013-03-15 14:54:00
11:54 AM,43.0,30.9,62,29.97,10.0,WSW,10.4,-,N/A,,Clear,240,2013-03-15 15:54:00
12:54 PM,45.0,33.1,63,29.95,10.0,West,9.2,-,N/A,,Clear,260,2013-03-15 16:54:00
1:54 PM,46.0,33.1,61,29.94,10.0,West,8.1,-,N/A,,Clear,260,2013-03-15 17:54:00
2:54 PM,46.9,33.1,59,29.91,10.0,WSW,11.5,-,N/A,,Clear,250,2013-03-15 18:54:00
3:54 PM,48.9,34.0,56,29.87,10.0,WSW,10.4,-,N/A,,Clear,240,2013-03-15 19:54:00
4:54 PM,48.9,34.0,56,29.87,10.0,WSW,12.7,-,N/A,,Partly Cloudy,240,2013-03-15 20:54:00
5:54 PM,48.9,35.1,59,29.87,10.0,West,8.1,-,N/A,,Clear,260,2013-03-15 21:54:00
6:54 PM,48.0,35.1,61,29.88,10.0,WSW,9.2,-,N/A,,Scattered Clouds,240,2013-03-15 22:54:00
7:54 PM,46.9,36.0,66,29.89,10.0,West,4.6,-,N/A,,Overcast,260,2013-03-15 23:54:00
8:54 PM,45.0,36.0,71,29.89,10.0,WSW,4.6,-,N/A,,Overcast,240,2013-03-16 00:54:00
9:54 PM,45.0,37.0,74,29.87,9.0,Calm,Calm,-,0.00,Rain,Light Rain,0,2013-03-16 01:54:00
10:54 PM,43.0,39.0,86,29.86,5.0,Calm,Calm,-,0.01,Rain,Light Rain,0,2013-03-16 02:54:00
11:54 PM,43.0,39.9,89,29.87,4.0,SSW,3.5,-,0.06,Rain,Light Rain,210,2013-03-16 03:54:00